Tracking 18980 objects as of 20-Feb-2018
HD Live streaming from Space Station
objects crossing your sky now

COSMOS 2200

Track COSMOS 2200 now!
10-day predictions
COSMOS 2200 is classified as:


NORAD ID: 22037
Int'l Code: 1992-042D
Perigee: 1,410.5 km
Apogee: 1,423.0 km
Inclination: 82.6 °
Period: 114.0 minutes
Semi major axis: 7787 km
RCS: 1.0995 m2 (large)
Launch date: July 13, 1992
Source: Commonwealth of Independent States (former USSR) (CIS)
Launch site: PLESETSK MISSILE AND SPACE COMPLEX (PKMTR)
aabbcc
Your satellite tracking list
Your tracking list is empty




NASA's NSSDC Master Catalog

Two Line Element Set (TLE):
1 22037U 92042D   18050.96391119 +.00000016 +00000-0 +27547-4 0  9990
2 22037 082.5900 015.7567 0008057 018.9014 042.7599 12.63235524180462
Source of the keplerian elements: AFSPC